Location: Quispamsis
(45.4447°N, 65.9414°W)
Time: 21:50:02
(UTC-03:00)

Daily predictions for brighter satellites

Satellite Brightness Start Highest point End
(mag) Time Altitude Azimuth Time Altitude Azimuth Time Altitude Azimuth
SL-08 R/B 4.5 18:45:36 10° S 18:51:41 69° E 18:57:46 10° NNE
SL-8 R/B 3.8 18:50:40 10° WSW 18:55:29 85° SSE 19:00:21 10° ENE
MTI 4.3 18:52:48 10° NNE 18:55:50 38° E 18:58:51 10° S
SL-16 R/B 4.1 18:54:02 10° NNE 18:56:00 12° NE 18:57:58 10° NE
USA 234 4.4 18:50:42 10° NE 18:56:24 33° N 19:02:07 10° WNW
Gbstr 26 Del rocket 3.5 18:52:10 10° WNW 18:56:50 74° NNE 19:02:41 10° ESE
RESURS DK-1 2.9 18:53:44 10° NNW 18:57:51 64° WSW 19:01:55 10° SSE
Aureole 2 Rocket 3.8 18:55:52 10° N 18:59:14 26° ENE 19:02:41 10° ESE
Cosmos 1452 Rocket 3.5 18:54:19 10° NNW 18:59:38 86° ENE 19:04:53 10° SSE
Aureole 1 Rocket 4.3 18:54:24 10° SW 19:00:14 54° WNW 19:04:40 10° NNE
SMAP 3.5 18:58:28 10° S 19:03:06 70° WSW 19:07:46 10° NNW
SPOT 3 Rocket 3.8 18:58:40 10° SE 19:03:36 46° ENE 19:08:35 10° N
Iridium 4 Rocket 4.4 18:59:04 10° SE 19:04:09 35° E 19:09:25 10° NNE
Cosmos 2360 Rocket 2.7 18:59:11 10° NNW 19:04:49 69° WSW 19:10:26 10° SSE
BREEZE M DEB (TANK) 2.9 18:59:10 10° WNW 19:05:54 53° N 19:08:25 11° E
ATLAS 5 CENTAUR R/B 4.3 19:05:34 10° NNW 19:07:27 12° N 19:09:23 10° NNE
Abrixas rocket 2.7 19:04:54 10° WNW 19:08:06 47° N 19:11:01 12° ENE
CZ-4C R/B 2.7 19:06:08 10° S 19:10:53 37° ESE 19:16:14 10° NE
Sich 1 4.2 19:08:15 10° NNE 19:11:48 23° ENE 19:15:20 10° SE
Cosmos 1300 4.2 19:11:40 10° SE 19:14:12 17° E 19:16:44 10° NE
Cosmos 1400 Rocket 3.9 19:11:33 10° NNW 19:15:27 50° W 19:19:17 10° S
COSMO-SKYMED 1 2.7 19:13:07 10° NNE 19:17:22 51° E 19:21:36 10° S
Cosmos 2366 rocket 4.3 19:11:56 10° SSW 19:18:06 72° W 19:24:17 10° N
Cosmos 2098 Rocket 4.0 19:13:51 10° SSE 19:18:23 40° E 19:24:01 10° NNE
COSMOS 2428 2.7 19:13:02 10° NNW 19:18:44 73° ENE 19:24:25 10° SSE
Cosmos 2151 3.5 19:15:51 10° NNW 19:20:06 64° W 19:24:17 10° S
BREEZE-M DEB (TANK) 3.8 19:06:45 10° W 19:21:22 88° N 19:25:05 15° E
FENGYUN 3A 3.9 19:16:15 10° SE 19:21:24 47° ENE 19:26:35 10° N
Cosmos 2333 Rocket 2.6 19:16:01 10° NNW 19:21:31 44° NE 19:26:59 10° SE
Cosmos 2058 3.5 19:17:39 10° NNW 19:21:48 62° W 19:25:52 10° S
Cosmos 2219 3.5 19:19:15 10° S 19:24:44 47° ESE 19:30:13 10° NE
MOS 1 4.3 19:20:51 10° SSE 19:26:32 86° ENE 19:32:16 10° NNW
Cosmos 1805 Rocket 3.7 19:23:40 10° N 19:27:56 48° ENE 19:32:12 10° SSE
Cosmos 44 Rocket 3.2 19:23:21 10° SSW 19:28:00 64° ESE 19:32:40 10° NE
FREGAT/IRIS 3.9 19:28:40 20° ENE 19:28:55 20° ENE 19:31:13 10° NNE
Cosmos 158 Rocket 3.9 19:26:29 10° SSW 19:31:33 77° ESE 19:36:48 10° NNE
Cosmos 2297 Rocket 3.5 19:28:16 10° SE 19:31:42 17° E 19:32:09 16° E
Abrixas 2.4 19:30:35 10° SW 19:32:35 35° SSE 19:33:00 31° ESE
BREEZE-M DEB (TANK) 4.3 19:36:06 10° SW 19:36:31 10° SW 19:36:56 10° SSW
Cosmos 1048 Rocket 3.9 19:31:45 10° S 19:36:50 71° ESE 19:41:57 10° NNE
APEX 2.3 19:34:02 10° SSW 19:37:04 89° SE 19:39:28 13° NNE
Cosmos 1666 Rocket 3.9 19:33:13 10° N 19:37:19 39° ENE 19:41:22 10° SE
ERS-2 4.0 19:35:08 10° SSW 19:38:32 34° W 19:41:57 10° NNW
YAOGAN 1 3.7 19:36:34 10° S 19:40:45 48° W 19:44:58 10° NNW
Cosmos 1633 Rocket 3.6 19:37:54 10° N 19:42:02 37° ENE 19:46:09 10° SE
Envisat 4.4 19:44:36 19° ENE 19:44:46 19° ENE 19:48:14 10° NNE
CZ-4 R/B 3.7 19:42:12 10° SSW 19:45:51 29° W 19:49:29 10° NW
Cosmos 1726 2.0 19:42:18 10° S 19:45:56 60° E 19:49:34 10° NNE
EO 1 Del DPAF 3.8 19:42:50 10° N 19:46:38 60° WNW 19:50:25 10° SSW
Cosmos 1000 Rocket 4.4 19:43:21 10° N 19:49:38 88° E 19:55:48 10° S
NOAA 12 4.1 19:46:10 10° SSE 19:51:29 89° WSW 19:56:51 10° NNW
Cosmos 2219 Rocket 2.1 19:45:54 10° NNW 19:51:33 82° ENE 19:57:10 10° SSE
Cosmos 1934 Rocket 4.1 19:45:54 10° SSE 19:52:05 56° E 19:58:17 10° NNE
Cosmos 1821 Rocket 3.9 19:47:36 10° S 19:53:46 75° E 20:00:03 10° NNE
FengYun 1-2 T 4.3 19:49:09 10° SE 19:54:28 54° ENE 19:59:49 10° N
BREEZE-M DEB (TANK) 1.8 19:56:56 10° W 19:58:56 54° NNW 19:58:56 54° NNW
Cosmos 2239 Rocket 4.4 19:53:03 10° S 19:59:10 82° E 20:05:22 10° N
Thor Agena Rocket 3.5 19:56:38 10° NNE 20:01:39 54° E 20:06:34 10° S
Cosmos 2084 3.1 19:58:27 10° NW 20:02:15 84° SW 20:04:14 27° SE
Cosmos 2221 3.3 19:58:04 10° SSW 20:02:19 55° WNW 20:06:38 10° N
ALOS 2.5 19:58:08 10° S 20:02:47 73° WSW 20:07:29 10° NNW
SKYMED 2 4.5 20:01:13 10° N 20:05:27 50° WNW 20:09:38 10° SSW
Cosmos 1331 Rocket 3.9 20:03:31 10° NNW 20:08:45 70° ENE 20:12:27 19° SSE
HJ-1C 4.3 20:13:32 36° NNE 20:13:32 36° NNE 20:15:51 10° N
MOS 1-B Rocket 4.1 20:15:53 29° SE 20:18:34 51° ENE 20:24:41 10° N
Cosmos 2123 Rocket 3.9 20:16:06 10° N 20:22:23 90° SSE 20:28:40 10° S
BREEZE-M R/B 4.0 20:22:01 10° SSW 20:23:15 23° SSW 20:23:15 23° SSW
SJ-6B 2.5 20:25:54 83° NE 20:25:54 83° NE 20:29:36 10° NNW
In-Cosmos 22 Rocket 4.2 20:20:40 10° N 20:26:27 88° W 20:32:17 10° S
Cosmos 1605 Rocket 3.8 20:22:13 10° S 20:28:16 72° E 20:34:20 10° NNE
Cosmos 2237 Rocket 2.1 20:23:03 10° NNW 20:28:49 87° ENE 20:31:45 30° SSE
Lacrosse 5 rocket 3.3 20:25:51 10° NW 20:28:53 18° N 20:29:07 18° NNE
Cosmos 967 Rocket 4.4 20:23:45 10° NNW 20:30:15 74° NE 20:32:44 40° SE
Cosmos 44 4.4 20:28:37 10° WSW 20:32:36 35° NW 20:35:22 17° NNE
Cosmos 1153 Rocket 4.5 20:27:43 10° SSE 20:33:39 54° E 20:39:42 10° NNE
H-2A R/B 3.3 20:32:05 22° S 20:34:28 60° W 20:38:22 10° NNW
Cosmos 1470 Rocket 3.7 20:31:21 10° N 20:35:15 61° NNE 20:35:15 61° NNE
Cosmos 2227 Rocket 2.1 20:32:11 10° SSW 20:37:46 67° ESE 20:39:15 48° NE
Cosmos 1302 Rocket 3.8 20:32:50 10° NNW 20:38:04 72° ENE 20:38:39 65° ESE
SL-8 R/B 3.9 20:33:29 10° W 20:38:16 60° N 20:38:45 57° NNE
USA 234 4.1 20:36:24 31° NE 20:38:25 38° NNE 20:44:21 10° NW
NOSS 0 Rocket 4.4 20:33:24 10° NW 20:39:27 60° WSW 20:44:52 13° S
SL-16 R/B 2.4 20:36:02 10° NNW 20:41:21 50° NE 20:41:21 50° NE
Abrixas rocket 4.0 20:41:36 10° WNW 20:43:32 32° WNW 20:43:32 32° WNW
Spot 2 Rocket 4.0 20:49:21 45° NNE 20:49:21 45° NNE 20:53:06 10° N
Cosmos 1300 4.3 20:46:05 10° SW 20:49:37 35° WNW 20:53:10 10° N
Cosmos 494 Rocket 4.0 20:45:23 10° SSW 20:50:29 76° WNW 20:52:55 32° NNE
BREEZE M DEB (TANK) 4.0 20:35:19 10° WNW 20:51:16 82° SSW 20:52:21 61° SE
Meteor 2-17 Rocket 4.3 20:46:44 10° S 20:52:43 68° E 20:58:47 10° NNE
Cosmos 1980 4.2 20:47:38 10° NNW 20:53:10 57° WSW 20:55:59 28° S
ATLAS 5 CENTAUR R/B 4.0 20:50:31 10° NNW 20:54:06 19° NNE 20:54:06 19° NNE
Resurs 01 Rocket 2.9 20:57:31 32° N 20:57:31 32° N 20:59:56 10° N
CZ-4C R/B 3.2 20:54:09 10° WSW 20:59:17 43° NW 21:02:54 21° NNE
Meteor 2-3 Rocket 3.7 20:53:53 10° NNW 20:59:41 86° W 21:00:30 67° S
Cosmos 1447 Rocket 4.4 20:53:42 10° N 21:00:04 85° W 21:02:38 39° S
USA 32 4.3 20:58:14 10° N 21:03:27 67° W 21:04:45 49° SSW
Cosmos 2333 Rocket 3.8 21:00:35 10° NW 21:05:37 32° WSW 21:10:39 10° SSW
Cosmos 2297 Rocket 2.5 21:09:22 10° SSW 21:14:04 62° SW 21:14:04 62° SW
Envisat 3.9 21:24:49 43° NW 21:24:49 43° NW 21:28:21 10° NNW
Cosmos 2082 4.3 21:19:49 10° SW 21:24:19 53° WSW 21:24:19 53° WSW
Cosmos 2251 Rocket 4.3 21:21:01 10° SW 21:25:27 49° W 21:25:27 49° W
USA 234 4.4 22:23:45 37° NW 22:23:45 37° NW 22:27:28 10° NW
Cosmos 2227 Rocket 4.3 22:17:51 10° W 22:21:11 22° WNW 22:21:11 22° WNW
SL-16 R/B 4.4 22:20:42 10° NW 22:23:15 21° WNW 22:23:15 21° WNW
